| time (UTC) | temp F | wind direction | speed MPH | gust MPH | rain 1hr in | rain 24hr in | rain mn in | humidity % | barometer mb |
| 20260903064131 | 66 | 255 | 2.0 | 5.0 | 0.00 | 0.00 | 0.00 | 66 | 1021.7 |
| 20260903063518 | 66 | 254 | 2.0 | 6.0 | 0.00 | 0.00 | 0.00 | 64 | 1021.7 |
| 20260903062519 | 65 | 259 | 1.0 | 3.0 | 0.00 | 0.00 | 0.00 | 66 | 1021.9 |
| 20260903061132 | 65 | 243 | 1.0 | 3.0 | 0.00 | 0.00 | 0.00 | 70 | 1021.8 |
| 20260903060519 | 64 | 213 | 2.0 | 5.0 | 0.00 | 0.00 | 0.00 | 70 | 1021.8 |
| 20260903055518 | 63 | 222 | 1.0 | 4.0 | 0.00 | 0.00 | 0.00 | 72 | 1021.9 |
| 20260903054131 | 63 | 240 | 1.0 | 4.0 | 0.00 | 0.00 | 0.00 | 72 | 1022.0 |
| 20260903053519 | 62 | 234 | 1.0 | 4.0 | 0.00 | 0.00 | 0.00 | 72 | 1021.9 |
| 20260903052519 | 62 | 212 | 1.0 | 3.0 | 0.00 | 0.00 | 0.00 | 72 | 1021.8 |
| 20260903051132 | 62 | 220 | 2.0 | 4.0 | 0.00 | 0.00 | 0.00 | 72 | 1021.8 |
| 20260903050519 | 62 | 216 | 2.0 | 6.0 | 0.00 | 0.00 | 0.00 | 71 | 1021.7 |
| 20260903045519 | 62 | 214 | 2.0 | 5.0 | 0.00 | 0.00 | 0.00 | 70 | 1021.7 |
| 20260903044131 | 62 | 209 | 2.0 | 5.0 | 0.00 | 0.00 | 0.00 | 72 | 1021.8 |
| 20260903043518 | 62 | 205 | 1.0 | 3.0 | 0.00 | 0.00 | 0.00 | 72 | 1021.7 |
| 20260903042519 | 62 | 198 | 1.0 | 4.0 | 0.00 | 0.00 | 0.00 | 72 | 1021.6 |
| 20260903041131 | 63 | 194 | 2.0 | 4.0 | 0.00 | 0.00 | 0.00 | 69 | 1021.4 |
| 20260903040519 | 63 | 199 | 2.0 | 4.0 | 0.00 | 0.00 | 0.00 | 70 | 1021.4 |
| 20260903035519 | 63 | 206 | 2.0 | 5.0 | 0.00 | 0.00 | 0.00 | 69 | 1021.4 |
| 20260903034518 | 64 | 217 | 2.0 | 6.0 | 0.00 | 0.00 | 0.00 | 66 | 1021.4 |
| 20260903033518 | 64 | 217 | 2.0 | 6.0 | 0.00 | 0.00 | 0.00 | 66 | 1021.2 |
| 20260903032519 | 65 | 225 | 3.0 | 7.0 | 0.00 | 0.00 | 0.00 | 66 | 1021.2 |
| 20260903031132 | 65 | 224 | 2.0 | 5.0 | 0.00 | 0.00 | 0.00 | 65 | 1021.2 |
| 20260903030519 | 65 | 233 | 1.0 | 4.0 | 0.00 | 0.00 | 0.00 | 64 | 1021.1 |
| 20260903025519 | 66 | 250 | 2.0 | 3.0 | 0.00 | 0.00 | 0.00 | 65 | 1020.9 |
| 20260903024519 | 66 | 246 | 2.0 | 4.0 | 0.00 | 0.00 | 0.00 | 64 | 1021.0 |
| 20260903023519 | 67 | 251 | 2.0 | 5.0 | 0.00 | 0.00 | 0.00 | 65 | 1020.8 |
| 20260903022519 | 67 | 252 | 2.0 | 4.0 | 0.00 | 0.00 | 0.00 | 63 | 1020.8 |
| 20260903021131 | 67 | 253 | 2.0 | 5.0 | 0.00 | 0.00 | 0.00 | 64 | 1020.5 |
| 20260903020519 | 67 | 248 | 2.0 | 5.0 | 0.00 | 0.00 | 0.00 | 63 | 1020.5 |
| 20260903015519 | 67 | 250 | 2.0 | 4.0 | 0.00 | 0.00 | 0.00 | 61 | 1020.5 |
| 20260903014131 | 67 | 251 | 2.0 | 5.0 | 0.00 | 0.00 | 0.00 | 61 | 1020.5 |
| 20260903013518 | 67 | 249 | 2.0 | 5.0 | 0.00 | 0.00 | 0.00 | 60 | 1020.5 |
| 20260903012518 | 66 | 229 | 3.0 | 7.0 | 0.00 | 0.00 | 0.00 | 62 | 1020.5 |
| 20260903011132 | 66 | 221 | 2.0 | 5.0 | 0.00 | 0.00 | 0.00 | 60 | 1020.4 |
| 20260903010519 | 66 | 219 | 3.0 | 5.0 | 0.00 | 0.00 | 0.00 | 63 | 1020.5 |
| 20260903005519 | 66 | 228 | 3.0 | 6.0 | 0.00 | 0.00 | 0.00 | 62 | 1020.4 |
| 20260903004132 | 66 | 230 | 2.0 | 4.0 | 0.00 | 0.00 | 0.00 | 62 | 1020.4 |
| 20260903003519 | 66 | 204 | 1.0 | 4.0 | 0.00 | 0.00 | 0.00 | 62 | 1020.5 |
| 20260903002519 | 66 | 211 | 1.0 | 3.0 | 0.00 | 0.00 | 0.00 | 66 | 1020.5 |
| 20260903001531 | 66 | 232 | 1.0 | 4.0 | 0.00 | 0.00 | 0.00 | 63 | 1020.5 |
| 20260903000518 | 66 | 226 | 1.0 | 5.0 | 0.00 | 0.00 | 0.00 | 59 | 1020.4 |
| 20260902235518 | 66 | 224 | 2.0 | 6.0 | 0.00 | 0.00 | 0.00 | 58 | 1020.3 |
| 20260902234132 | 66 | 223 | 2.0 | 6.0 | 0.00 | 0.00 | 0.00 | 60 | 1020.3 |
| 20260902233518 | 66 | 228 | 2.0 | 4.0 | 0.00 | 0.00 | 0.00 | 61 | 1020.4 |
| 20260902232518 | 66 | 224 | 2.0 | 10.0 | 0.00 | 0.00 | 0.00 | 63 | 1020.5 |
| 20260902231519 | 65 | 222 | 2.0 | 5.0 | 0.00 | 0.00 | 0.00 | 67 | 1020.6 |
| 20260902230518 | 65 | 217 | 1.0 | 7.0 | 0.00 | 0.00 | 0.00 | 71 | 1020.7 |
| 20260902225519 | 65 | 199 | 3.0 | 8.0 | 0.00 | 0.00 | 0.00 | 69 | 1020.6 |
| 20260902224132 | 65 | 204 | 2.0 | 6.0 | 0.00 | 0.00 | 0.00 | 69 | 1020.7 |
| 20260902223519 | 64 | 181 | 1.0 | 4.0 | 0.00 | 0.00 | 0.00 | 74 | 1020.8 |
| 20260902222519 | 64 | 161 | 1.0 | 4.0 | 0.00 | 0.00 | 0.00 | 73 | 1020.6 |
| 20260902221132 | 63 | 259 | 0.0 | 2.0 | 0.00 | 0.00 | 0.00 | 75 | 1020.7 |
| 20260902220518 | 64 | 252 | 1.0 | 2.0 | 0.00 | 0.00 | 0.00 | 78 | 1020.6 |
| 20260902215519 | 64 | 267 | 0.0 | 2.0 | 0.00 | 0.00 | 0.00 | 78 | 1020.5 |
| 20260902214132 | 64 | 165 | 2.0 | 5.0 | 0.00 | 0.00 | 0.00 | 79 | 1020.6 |
| 20260902213518 | 64 | 287 | 1.0 | 2.0 | 0.00 | 0.00 | 0.00 | 78 | 1020.4 |
| 20260902211133 | 64 | 199 | 0.0 | 1.0 | 0.00 | 0.00 | 0.00 | 77 | 1020.5 |
| 20260902210519 | 64 | 223 | 1.0 | 1.0 | 0.00 | 0.00 | 0.00 | 76 | 1020.4 |
| 20260902205519 | 64 | 212 | 1.0 | 2.0 | 0.00 | 0.00 | 0.00 | 75 | 1020.4 |
| 20260902204133 | 64 | 200 | 1.0 | 2.0 | 0.00 | 0.00 | 0.00 | 75 | 1020.4 |
| 20260902203518 | 64 | 179 | 2.0 | 2.0 | 0.00 | 0.00 | 0.00 | 77 | 1020.3 |
| 20260902202519 | 65 | 177 | 1.0 | 3.0 | 0.00 | 0.00 | 0.00 | 80 | 1020.3 |
| 20260902201132 | 65 | 158 | 1.0 | 2.0 | 0.00 | 0.00 | 0.00 | 79 | 1020.3 |
| 20260902200519 | 65 | 314 | 1.0 | 3.0 | 0.00 | 0.00 | 0.00 | 79 | 1020.2 |
| 20260902195519 | 66 | 239 | 1.0 | 2.0 | 0.00 | 0.00 | 0.00 | 77 | 1020.2 |
| 20260902194132 | 66 | 172 | 1.0 | 3.0 | 0.00 | 0.00 | 0.00 | 73 | 1020.1 |
| 20260902193519 | 66 | 245 | 1.0 | 2.0 | 0.00 | 0.00 | 0.00 | 72 | 1020.1 |
| 20260902192518 | 66 | 155 | 1.0 | 2.0 | 0.00 | 0.00 | 0.00 | 71 | 1020.2 |
| 20260902191132 | 67 | 143 | 1.0 | 3.0 | 0.00 | 0.00 | 0.00 | 71 | 1019.9 |
| 20260902190518 | 67 | 105 | 2.0 | 4.0 | 0.00 | 0.00 | 0.00 | 74 | 1019.9 |
| 20260902185519 | 67 | 150 | 2.0 | 3.0 | 0.00 | 0.00 | 0.00 | 73 | 1019.7 |
| 20260902184132 | 67 | 51 | 1.0 | 3.0 | 0.00 | 0.00 | 0.00 | 71 | 1019.7 |
| 20260902183519 | 67 | 306 | 1.0 | 3.0 | 0.00 | 0.00 | 0.00 | 69 | 1019.5 |
| 20260902182519 | 68 | 228 | 1.0 | 3.0 | 0.00 | 0.00 | 0.00 | 63 | 1019.1 |
| 20260902181132 | 68 | 177 | 2.0 | 4.0 | 0.00 | 0.00 | 0.00 | 61 | 1019.0 |
| 20260902180519 | 68 | 162 | 2.0 | 3.0 | 0.00 | 0.00 | 0.00 | 63 | 1019.0 |
| 20260902175518 | 69 | 163 | 2.0 | 3.0 | 0.00 | 0.00 | 0.00 | 62 | 1018.8 |
| 20260902174132 | 70 | 81 | 1.0 | 3.0 | 0.00 | 0.00 | 0.00 | 62 | 1018.7 |
| 20260902173518 | 70 | 64 | 2.0 | 3.0 | 0.00 | 0.00 | 0.00 | 64 | 1018.7 |
| 20260902172519 | 70 | 48 | 2.0 | 4.0 | 0.00 | 0.00 | 0.00 | 65 | 1018.5 |
| 20260902171132 | 71 | 40 | 2.0 | 4.0 | 0.00 | 0.00 | 0.00 | 59 | 1018.4 |
| 20260902170519 | 72 | 335 | 0.0 | 3.0 | 0.00 | 0.00 | 0.00 | 60 | 1018.4 |
| 20260902165520 | 72 | 324 | 0.0 | 2.0 | 0.00 | 0.00 | 0.00 | 56 | 1018.4 |
| 20260902164132 | 73 | 341 | 2.0 | 4.0 | 0.00 | 0.00 | 0.00 | 53 | 1018.4 |
| 20260902163519 | 74 | 311 | 3.0 | 6.0 | 0.00 | 0.00 | 0.00 | 55 | 1018.2 |
| 20260902162519 | 75 | 303 | 4.0 | 6.0 | 0.00 | 0.00 | 0.00 | 51 | 1018.0 |
| 20260902161132 | 76 | 299 | 3.0 | 7.0 | 0.00 | 0.00 | 0.00 | 48 | 1017.9 |
| 20260902160518 | 76 | 289 | 4.0 | 9.0 | 0.00 | 0.00 | 0.00 | 47 | 1017.9 |
| 20260902155519 | 76 | 280 | 3.0 | 8.0 | 0.00 | 0.00 | 0.00 | 47 | 1017.9 |
| 20260902154132 | 76 | 278 | 4.0 | 12.0 | 0.00 | 0.00 | 0.00 | 47 | 1018.0 |
| 20260902153519 | 76 | 289 | 4.0 | 10.0 | 0.00 | 0.00 | 0.00 | 46 | 1018.0 |
| 20260902152518 | 76 | 268 | 3.0 | 9.0 | 0.00 | 0.00 | 0.00 | 48 | 1018.0 |
| 20260902151132 | 77 | 297 | 6.0 | 11.0 | 0.00 | 0.00 | 0.00 | 49 | 1017.9 |
| 20260902150519 | 77 | 315 | 4.0 | 8.0 | 0.00 | 0.00 | 0.00 | 47 | 1018.1 |
| 20260902145519 | 77 | 274 | 2.0 | 6.0 | 0.00 | 0.00 | 0.00 | 47 | 1018.1 |
| 20260902144132 | 76 | 256 | 2.0 | 4.0 | 0.00 | 0.00 | 0.00 | 48 | 1018.3 |
| 20260902143518 | 76 | 285 | 4.0 | 10.0 | 0.00 | 0.00 | 0.00 | 49 | 1018.2 |
| 20260902142519 | 76 | 292 | 4.0 | 9.0 | 0.00 | 0.00 | 0.00 | 48 | 1018.3 |
| 20260902141132 | 77 | 288 | 4.0 | 8.0 | 0.00 | 0.00 | 0.00 | 47 | 1018.1 |
| 20260902140519 | 77 | 243 | 1.0 | 4.0 | 0.00 | 0.00 | 0.00 | 46 | 1018.2 |
| 20260902135519 | 76 | 279 | 3.0 | 7.0 | 0.00 | 0.00 | 0.00 | 44 | 1018.6 |
| 20260902134131 | 76 | 301 | 4.0 | 9.0 | 0.00 | 0.00 | 0.00 | 45 | 1018.5 |
| 20260902133519 | 76 | 295 | 3.0 | 7.0 | 0.00 | 0.00 | 0.00 | 47 | 1018.6 |
| 20260902132519 | 75 | 295 | 4.0 | 8.0 | 0.00 | 0.00 | 0.00 | 51 | 1018.8 |
| 20260902131132 | 74 | 303 | 4.0 | 7.0 | 0.00 | 0.00 | 0.00 | 50 | 1019.0 |
| 20260902130519 | 74 | 305 | 5.0 | 9.0 | 0.00 | 0.00 | 0.00 | 50 | 1019.0 |
| 20260902125519 | 75 | 289 | 3.0 | 6.0 | 0.00 | 0.00 | 0.00 | 53 | 1018.9 |
| 20260902124131 | 74 | 351 | 0.0 | 4.0 | 0.00 | 0.00 | 0.00 | 52 | 1019.0 |
| 20260902123519 | 74 | 27 | 1.0 | 4.0 | 0.00 | 0.00 | 0.00 | 57 | 1019.0 |
| 20260902122519 | 74 | 320 | 2.0 | 6.0 | 0.00 | 0.00 | 0.00 | 48 | 1019.1 |
| 20260902121132 | 74 | 285 | 2.0 | 4.0 | 0.00 | 0.00 | 0.00 | 52 | 1019.2 |
| 20260902120518 | 74 | 343 | 2.0 | 7.0 | 0.00 | 0.00 | 0.00 | 54 | 1019.3 |
| 20260902115518 | 73 | 322 | 3.0 | 7.0 | 0.00 | 0.00 | 0.00 | 54 | 1019.4 |
| 20260902114132 | 73 | 334 | 2.0 | 7.0 | 0.00 | 0.00 | 0.00 | 57 | 1019.4 |
| 20260902113519 | 73 | 40 | 2.0 | 7.0 | 0.00 | 0.00 | 0.00 | 58 | 1019.4 |
| 20260902112519 | 73 | 8 | 1.0 | 5.0 | 0.00 | 0.00 | 0.00 | 51 | 1019.4 |
| 20260902111132 | 74 | 313 | 3.0 | 6.0 | 0.00 | 0.00 | 0.00 | 50 | 1019.5 |
| 20260902110519 | 74 | 296 | 3.0 | 7.0 | 0.00 | 0.00 | 0.00 | 53 | 1019.6 |
| 20260902105518 | 73 | 265 | 2.0 | 4.0 | 0.00 | 0.00 | 0.00 | 53 | 1019.9 |
| 20260902104132 | 73 | 270 | 1.0 | 3.0 | 0.00 | 0.00 | 0.00 | 51 | 1019.9 |
| 20260902103519 | 73 | 260 | 1.0 | 3.0 | 0.00 | 0.00 | 0.00 | 51 | 1020.1 |
| 20260902102518 | 74 | 288 | 2.0 | 4.0 | 0.00 | 0.00 | 0.00 | 51 | 1020.0 |
| 20260902101132 | 72 | 294 | 2.0 | 4.0 | 0.00 | 0.00 | 0.00 | 60 | 1020.2 |
| 20260902100519 | 71 | 18 | 1.0 | 4.0 | 0.00 | 0.00 | 0.00 | 63 | 1020.3 |
| 20260902095519 | 71 | 55 | 3.0 | 4.0 | 0.00 | 0.00 | 0.00 | 59 | 1020.4 |
| 20260902094132 | 70 | 59 | 3.0 | 4.0 | 0.00 | 0.00 | 0.00 | 60 | 1020.5 |
| 20260902093519 | 69 | 63 | 2.0 | 4.0 | 0.00 | 0.00 | 0.00 | 61 | 1020.6 |
| 20260902092518 | 69 | 51 | 1.0 | 3.0 | 0.00 | 0.00 | 0.00 | 62 | 1020.7 |
| 20260902091131 | 69 | 277 | 2.0 | 3.0 | 0.00 | 0.00 | 0.00 | 59 | 1020.7 |
| 20260902090519 | 68 | 286 | 2.0 | 3.0 | 0.00 | 0.00 | 0.00 | 63 | 1020.9 |
| 20260902084131 | 68 | 292 | 3.0 | 5.0 | 0.00 | 0.00 | 0.00 | 65 | 1020.9 |
| 20260902083519 | 68 | 290 | 3.0 | 4.0 | 0.00 | 0.00 | 0.00 | 66 | 1020.9 |
| 20260902082519 | 67 | 279 | 2.0 | 4.0 | 0.00 | 0.00 | 0.00 | 65 | 1020.9 |
| 20260902081131 | 67 | 260 | 1.0 | 4.0 | 0.00 | 0.00 | 0.00 | 66 | 1021.0 |
| 20260902080518 | 66 | 256 | 2.0 | 5.0 | 0.00 | 0.00 | 0.00 | 65 | 1021.2 |
| 20260902075519 | 66 | 258 | 1.0 | 4.0 | 0.00 | 0.00 | 0.00 | 66 | 1021.2 |
| 20260902074132 | 65 | 240 | 1.0 | 4.0 | 0.00 | 0.00 | 0.00 | 68 | 1021.2 |
| 20260902073518 | 64 | 224 | 1.0 | 4.0 | 0.00 | 0.00 | 0.00 | 69 | 1021.2 |
| 20260902072519 | 64 | 262 | 0.0 | 3.0 | 0.00 | 0.00 | 0.00 | 70 | 1021.3 |
| 20260902071332 | 63 | 233 | 1.0 | 4.0 | 0.00 | 0.00 | 0.00 | 71 | 1021.4 |
| 20260902070518 | 62 | 281 | 1.0 | 4.0 | 0.00 | 0.00 | 0.00 | 75 | 1021.5 |
| 20260902065518 | 62 | 146 | 2.0 | 5.0 | 0.00 | 0.00 | 0.00 | 75 | 1021.4 |